Location: Rokycany
(49.7330°N, 13.6000°E)
Time: 01:19:04
(UTC+02:00)

ISS - Visible Passes

Search period start: 06 May 2021 00:00
Search period end: 16 May 2021 00:00
Orbit: 418 x 421 km, 51.6° (Epoch: 05 May)

Date Brightness Start Highest point End Pass type
(mag) Time Alt. Az. Time Alt. Az. Time Alt. Az.
06 May -3.4 02:48:19 53° ESE 02:48:19 53° ESE 02:51:18 10° ENE visible
06 May -3.3 04:21:26 10° W 04:24:48 63° N 04:28:10 10° ENE visible
07 May -1.7 02:02:24 21° E 02:02:24 21° E 02:03:48 10° E visible
07 May -3.5 03:35:20 22° W 03:37:20 70° N 03:40:43 10° ENE visible
08 May -3.8 02:49:24 63° W 02:49:52 83° NNW 02:53:16 10° ENE visible
08 May -3.3 04:23:30 10° WNW 04:26:51 61° N 04:30:13 10° E visible
09 May -2.9 02:03:25 43° E 02:03:25 43° E 02:05:49 10° ENE visible
09 May -3.2 03:36:21 12° W 03:39:22 60° N 03:42:43 10° E visible
10 May -1.4 01:17:26 17° E 01:17:26 17° E 01:18:22 10° ENE visible
10 May -3.3 02:50:21 29° WNW 02:51:53 62° N 02:55:14 10° ENE visible
10 May -3.6 04:25:28 10° WNW 04:28:53 79° NNE 04:32:15 10° ESE visible
11 May -3.6 02:04:19 69° NNW 02:04:23 70° N 02:07:46 10° ENE visible
11 May -3.4 03:38:01 10° WNW 03:41:24 68° N 03:44:46 10° E visible
12 May -2.5 01:18:14 35° ENE 01:18:14 35° ENE 01:20:18 10° ENE visible
12 May -3.3 02:51:09 14° WNW 02:53:54 62° N 02:57:16 10° E visible
12 May -3.7 04:27:25 10° WNW 04:30:46 62° SSW 04:34:06 10° ESE visible
13 May -1.4 00:32:03 16° ENE 00:32:03 16° ENE 00:32:51 10° ENE visible
13 May -3.3 02:04:58 30° WNW 02:06:24 60° N 02:09:45 10° E visible
13 May -3.9 03:39:58 10° WNW 03:43:20 83° SSW 03:46:44 10° ESE visible
14 May -3.3 01:18:34 58° NW 01:18:53 62° N 01:22:15 10° ENE visible
14 May -3.7 02:52:30 10° WNW 02:55:53 80° NNE 02:59:16 10° ESE visible
14 May -2.9 04:29:29 10° W 04:32:31 31° SSW 04:35:32 10° SSE visible
14 May -3.4 22:51:28 10° SW 22:54:39 41° SSE 22:57:52 10° E visible
15 May -3.5 00:28:01 10° W 00:31:23 69° N 00:34:46 10° ENE visible
15 May -3.5 02:05:01 10° WNW 02:08:24 68° N 02:11:46 10° E visible
15 May -3.5 03:41:55 10° WNW 03:45:09 44° SSW 03:48:23 10° SE visible
15 May -2.9 22:04:21 10° SSW 22:07:18 29° SE 22:10:17 10° E visible
15 May -3.8 23:40:32 10° WSW 23:43:54 82° NNW 23:47:17 10° ENE visible
